Home > Weather > Chisinau > Past weeks

Flag for Moldova Weather for the Past 2 Weeks in Chisinau, Moldova

Now
37 °F

Clear.


Feels Like: 34 °F
Forecast: 32 / 49 °F
Wind: 5 mph from West

Location: Chisinau International Airport

Current Time: Feb 12, 2016 at 1:32:43 AM

Latest Report: Feb 12, 2016 at 12:30 AM


Visibility: 10 mi

Pressure: 29.83 "Hg

Humidity: 65%

Dew point: 27 °F

Location of ChisinauLocation

Historic Weather in Chisinau — Graph

°F

Chisinau Temperature Yesterday

Maximum temperature yesterday: 50 °F (at 12:30 PM)
Minimum temperature yesterday: 37 °F (at 9:00 PM)
Average temperature yesterday: 45 °F

High & Low Weather Summary for the Past Weeks

 TemperatureHumidityPressure
High54 °F (Feb 3, 1:30 PM)100% (Jan 30, 6:00 PM)30.39 "Hg (Jan 30, 6:00 PM)
Low25 °F (Feb 7, 2:00 AM)46% (Feb 11, 2:30 PM)29.42 "Hg (Feb 11, 4:30 AM)
Average39 °F79%30.06 "Hg
* Reported Jan 27 11:00 PM — Feb 11 11:30 PM, Chisinau, Weather by CustomWeather, © 2016

Note: Actual official high and low records may vary slightly from our data, if they occured in-between our weather recording intervals... More about our weather records

Advertising

Chisinau Weather History for the Previous 24 Hours

 ConditionsComfort  
Time TempWeatherWind HumidityBarometerVisibility
11:30 PM
Thu, Feb 11
37 °FClear.7 mph65%29.83 "Hg10 mi
11:00 PM37 °FClear.6 mph65%29.80 "Hg10 mi
10:30 PM37 °FClear.9 mph65%29.80 "Hg10 mi
10:00 PM37 °FClear.9 mph65%29.80 "Hg10 mi
9:30 PM39 °FClear.8 mph61%29.80 "Hg10 mi
9:00 PM37 °FClear.10 mph65%29.77 "Hg10 mi
8:30 PM39 °FClear.9 mph61%29.77 "Hg10 mi
8:00 PM41 °FClear.6 mph57%29.77 "Hg10 mi
7:30 PM43 °FClear.7 mph57%29.74 "Hg10 mi
7:00 PM43 °FClear.7 mph57%29.74 "Hg10 mi
6:30 PM43 °FClear.6 mph57%29.74 "Hg10 mi
6:00 PM43 °FClear.5 mph57%29.71 "Hg10 mi
5:30 PM45 °FClear.2 mph49%29.71 "Hg10 mi
5:00 PM46 °FSunny.3 mph50%29.68 "Hg10 mi
4:30 PM48 °FSunny.6 mph46%29.68 "Hg10 mi
4:00 PM48 °FSunny.13 mph46%29.65 "Hg10 mi
3:30 PM48 °FPassing clouds.5 mph50%29.65 "HgN/A
3:00 PM46 °FSunny.14 mph53%29.62 "Hg10 mi
2:30 PM48 °FSunny.14 mph46%29.62 "Hg10 mi
2:00 PM48 °FSunny.20 mph50%29.59 "Hg10 mi
1:30 PM50 °FSunny.18 mph47%29.56 "Hg10 mi
1:00 PM50 °FPassing clouds.22 mph47%29.56 "HgN/A
12:30 PM50 °FScattered clouds.21 mph47%29.56 "HgN/A
12:00 PM48 °FPassing clouds.17 mph54%29.53 "HgN/A
11:30 AM46 °FPassing clouds.10 mph66%29.53 "HgN/A
11:00 AM46 °FPartly sunny.7 mph76%29.53 "HgN/A
10:30 AM45 °FPartly sunny.9 mph81%29.50 "HgN/A
10:00 AM45 °FPartly sunny.10 mph81%29.50 "HgN/A
9:30 AM45 °FPartly sunny.10 mph81%29.47 "HgN/A
9:00 AM45 °FPartly sunny.8 mph87%29.45 "HgN/A
8:30 AM45 °FSprinkles. Partly sunny.9 mph87%29.45 "HgN/A
8:00 AM45 °FSprinkles. Partly sunny.7 mph93%29.45 "HgN/A
7:30 AM45 °FSprinkles. Broken clouds.8 mph93%29.45 "HgN/A
7:00 AM45 °FSprinkles. Passing clouds.8 mph93%29.45 "HgN/A
6:30 AM46 °FSprinkles. Partly cloudy.12 mph93%29.45 "Hg4 mi
6:00 AM46 °FSprinkles. Partly cloudy.15 mph93%29.42 "Hg4 mi
5:30 AM46 °FSprinkles. Mostly cloudy.15 mph93%29.42 "Hg3 mi
4:30 AM46 °FSprinkles. Mostly cloudy.16 mph87%29.42 "HgN/A
4:00 AM46 °FSprinkles. Partly cloudy.15 mph87%29.45 "Hg6 mi
3:30 AM46 °FLight rain. Partly cloudy.17 mph87%29.45 "HgN/A
3:00 AM46 °FPartly cloudy.15 mph82%29.45 "HgN/A
2:00 AM46 °FPassing clouds.17 mph82%29.45 "HgN/A
1:30 AM46 °FPassing clouds.22 mph82%29.47 "HgN/A
1:00 AM46 °FLight rain. Passing clouds.22 mph82%29.47 "HgN/A
Weather by CustomWeather, © 2016

See weather overviewHow to use our weather pages